Weather History for KITH - November, 2011

Change the Weather History Date:

Tuesday, November 1, 2011

  Actual Average Record
Temperature  
Mean Temperature 45 °F -  
Max Temperature 54 °F 54 °F 71 °F (1950)
Min Temperature 36 °F 36 °F 23 °F (1964)
Degree Days  
Heating Degree Days 20    
Moisture  
Dew Point 33 °F    
Average Humidity 71    
Maximum Humidity 89    
Minimum Humidity 45    
Precipitation  
Precipitation 0.00 in - - ()
Sea Level Pressure  
Sea Level Pressure 30.33 in    
Wind  
Wind Speed 4 mph (SE)    
Max Wind Speed 9 mph    
Max Gust Speed -    
Visibility 10 miles    
Events Rain    
Averages and records for this station are not official NWS values.
T = Trace of Precipitation, MM = Missing Value Source: NWS Daily Summary

Daily Weather History Graph

Daily Weather History Graph

Search for Another Location

Airport or City:

Trip Planner

Search our weather history database for the weather conditions in past years. The results will help you decide how hot, cold, wet, or windy it might be!

Date:

Astronomy

Nov. 01, 2011 Rise Set
Actual Time 7:39 AM EDT 5:59 PM EDT
Civil Twilight 7:09 AM EDT 6:28 PM EDT
Nautical Twilight 6:36 AM EDT 7:01 PM EDT
Astronomical Twilight 6:03 AM EDT 7:34 PM EDT
Moon 1:25 PM EDT (11/1) 11:38 PM EDT (11/1)
Length of Visible Light 11h 18m
Length of Day
10h 20m
Waxing Crescent, 39% of the Moon is Illuminated
Nov 1
Waxing Crescent
Nov 2
First Quarter
Nov 10
Full
Nov 18
Last Quarter
Nov 25
New

Hourly Weather History & Observations

Time (EDT) Temp. Windchill Dew Point Humidity Pressure Visibility Wind Dir Wind Speed Gust Speed Precip Events Conditions
12:56 AM 39.9 °F 33.9 °F 31.1 °F 71% 30.31 in 10.0 mi SSE 9.2 mph - 0.00 in Rain Light Rain
1:56 AM 38.8 °F 35.4 °F 30.0 °F 71% 30.30 in 10.0 mi SSE 4.6 mph - 0.00 in   Mostly Cloudy
2:56 AM 38.8 °F 36.5 °F 31.1 °F 74% 30.31 in 10.0 mi ESE 3.5 mph - N/A   Overcast
4:56 AM 38.8 °F 36.5 °F 31.1 °F 74% 30.31 in 10.0 mi East 3.5 mph - N/A   Overcast
5:56 AM 37.9 °F 35.5 °F 32.0 °F 79% 30.32 in 10.0 mi East 3.5 mph - N/A   Overcast
6:16 AM 37.4 °F - 32.0 °F 81% 30.29 in 10.0 mi Calm Calm - N/A   Overcast
6:56 AM 37.9 °F - 32.9 °F 82% 30.33 in 10.0 mi Calm Calm - N/A   Overcast
9:56 AM 45.0 °F 42.6 °F 32.0 °F 60% 30.34 in 10.0 mi SE 4.6 mph - N/A   Clear
10:56 AM 46.9 °F - 32.9 °F 58% 30.36 in 10.0 mi South 5.8 mph - N/A   Clear
11:56 AM 50.0 °F - 34.0 °F 54% 30.35 in 10.0 mi South 3.5 mph - N/A   Clear
1:56 PM 54.0 °F - 32.9 °F 45% 30.31 in 10.0 mi Variable 3.5 mph - N/A   Scattered Clouds
2:56 PM 54.0 °F - 32.9 °F 45% 30.30 in 10.0 mi Calm Calm - N/A   Scattered Clouds
5:56 PM 46.9 °F - 34.9 °F 63% 30.31 in 10.0 mi SSE 5.8 mph - N/A   Partly Cloudy
6:56 PM 43.9 °F 42.3 °F 36.0 °F 74% 30.32 in 10.0 mi SE 3.5 mph - N/A   Clear
7:56 PM 37.9 °F - 34.9 °F 89% 30.35 in 10.0 mi Calm Calm - N/A   Clear
8:56 PM 36.9 °F - 34.0 °F 89% 30.35 in 10.0 mi Calm Calm - N/A   Clear
9:56 PM 37.9 °F 33.5 °F 32.9 °F 82% 30.35 in 10.0 mi SE 5.8 mph - N/A   Clear
10:56 PM 41.0 °F 38.0 °F 32.9 °F 73% 30.34 in 10.0 mi SSE 4.6 mph - N/A   Clear
11:56 PM 37.9 °F 34.4 °F 32.9 °F 82% 30.34 in 10.0 mi SE 4.6 mph - N/A   Clear